Regional Weather Roundup
Issued by NWS Sioux Falls, SD

Home | Current Version | Previous Version | Graphics & Text | Print | Product List | Glossary Off
Versions: 1 2 3 4 5 6 7 8 9 10 11 12 13 14 15 16 17 18 19 20 21 22 23 24 25 26 27 28 29 30 31 32 33 34 35 36 37 38 39 40 41 42 43 44 45 46 47 48 49 50

000
ASUS43 KFSD 041802
RWRFSD

WEATHER ROUNDUP FOR SE SOUTH DAKOTA/SW MINNESOTA/NW IOWA
NATIONAL WEATHER SERVICE SIOUX FALLS SD
100 PM CDT FRI SEP 04 2015

NOTE: "FAIR" INDICATES FEW OR NO CLOUDS BELOW 12,000 FEET WITH NO
SIGNIFICANT WEATHER AND OR OBSTRUCTIONS TO VISIBILITY.


SDZ038>040-050-052>070-041900-
SOUTHEAST SOUTH DAKOTA

CITY           SKY/WX    TMP DP  RH WIND       PRES   REMARKS
BROOKINGS      CLOUDY   N/A N/A N/A SE5       29.88S
CHAMBERLAIN    NOT AVBL
HURON          PTSUNNY   84  68  58 S15G21    29.77F
6HR MIN TEMP:  70; 6HR MAX TEMP:  84; 6HR PCP:  0.16;

MADISON        FAIR      75  73  94 SE8       29.87F
MITCHELL       PTSUNNY   85  68  56 S12       29.79F
6HR MIN TEMP:  73; 6HR MAX TEMP:  85; 6HR PCP: TRACE;

SIOUX FALLS    LGT RAIN  73  67  81 SE13      29.86S
6HR MIN TEMP:  73; 6HR MAX TEMP:  80; 6HR PCP:  0.06;

WINNER         FAIR      87  63  44 S9        29.79S
YANKTON        MOSUNNY   84  70  61 S16G26    29.81F
$$

MNZ071-072-080-081-089-090-097-098-041900-
SOUTHWEST MINNESOTA

CITY           SKY/WX    TMP DP  RH WIND       PRES   REMARKS
FAIRMONT       MOSUNNY   84  70  61 S8        29.92R
JACKSON        PTSUNNY   84  72  65 S10       29.94R
LUVERNE        TSTM      77  68  73 S8        29.90S
MARSHALL       PTSUNNY   86  68  54 S5        29.89R
6HR MIN TEMP:  72; 6HR MAX TEMP:  88;

MONTEVIDEO     CLOUDY    90  77  66 W3        29.88F HX 102
PIPESTONE      CLOUDY    79  68  69 S6        29.91R THUNDER
REDWOOD FALLS  PTSUNNY   86  69  56 S10       29.88F
TRACY          PTSUNNY   81  71  71 S10       29.90R
WINDOM         PTSUNNY   84  70  61 SE5       29.92S
WORTHINGTON    PTSUNNY   79  68  69 S15       29.92S
$$

IAZ001>003-012>014-020>022-031-032-NEZ013-014-SDZ071-041900-
NORTHWEST IOWA

CITY           SKY/WX    TMP DP  RH WIND       PRES   REMARKS
ESTHERVILLE    PTSUNNY   83  72  69 S12       29.93R
SIOUX CITY     LGT RAIN  79  72  79 SE9       29.88R
6HR MIN TEMP:  71; 6HR MAX TEMP:  79; 6HR PCP:  0.07;

SPENCER        PTSUNNY   83  68  60 SW13      29.93S
6HR MIN TEMP:  71; 6HR MAX TEMP:  84;

$$

ABBREVIATIONS USED IN REMARKS
   TC - TEMPERATURE IN CELSIUS
  WCI - WIND CHILL INDEX
   HX - HEAT INDEX
  VSB - VISIBILITY




USA.gov is the U.S. government's official web portal to all federal, state and local government web resources and services.